Weather History for Meriden, CT

Change the Weather History Date:

Monday, November 14, 2011

  Actual Average (KHVN) Record (KHVN)
Temperature  
Mean Temperature 53 °F -  
Max Temperature 64 °F 49 °F 70 °F (1973)
Min Temperature 42 °F 35 °F 19 °F (1986)
Degree Days  
Heating Degree Days 12    
Growing Degree Days 3 (Base 50)    
Moisture  
Dew Point 46 °F    
Average Humidity 71    
Maximum Humidity 92    
Minimum Humidity 48    
Precipitation  
Precipitation 0.00 in - - ()
Sea Level Pressure  
Sea Level Pressure 29.86 in    
Wind  
Wind Speed 5 mph (South)    
Max Wind Speed 10 mph    
Max Gust Speed -    
Visibility 10 miles    
Events      
Averages and records for this station are not official NWS values.
T = Trace of Precipitation, MM = Missing Value Source: NWS Daily Summary

Daily Weather History Graph

Daily Weather History Graph

Search for Another Location

Airport:

Trip Planner

Search our weather history database for the weather conditions in past years. The results will help you decide how hot, cold, wet, or windy it might be!

Date:

Astronomy

Nov. 14, 2011 Rise Set
Actual Time 6:38 AM EST 4:32 PM EST
Civil Twilight 6:08 AM EST 5:02 PM EST
Nautical Twilight 5:35 AM EST 5:35 PM EST
Astronomical Twilight 5:02 AM EST 6:08 PM EST
Moon 7:35 PM EST (11/14) 9:56 AM EST (11/14)
Length of Visible Light 10h 53m
Length of Day
9h 54m
Waning Gibbous, 87% of the Moon is Illuminated
Nov 14
Waning Gibbous
Nov 18
Last Quarter
Nov 25
New
Dec 2
First Quarter
Dec 10
Full

Hourly Weather History & Observations

Time (EST) Temp. Dew Point Humidity Pressure Visibility Wind Dir Wind Speed Gust Speed Precip Events Conditions
12:53 AM 53.1 °F 45.0 °F 74% 29.95 in 10.0 mi South 5.8 mph - N/A   Overcast
1:53 AM 53.1 °F 44.1 °F 71% 29.93 in 10.0 mi SSE 5.8 mph - N/A   Clear
2:53 AM 52.0 °F 45.0 °F 77% 29.93 in 10.0 mi SSE 3.5 mph - N/A   Clear
3:53 AM 50.0 °F 44.1 °F 80% 29.93 in 10.0 mi SSE 5.8 mph - N/A   Clear
5:53 AM 44.1 °F 39.9 °F 85% 29.93 in 10.0 mi Calm Calm - N/A   Scattered Clouds
6:53 AM 42.1 °F 39.9 °F 92% 29.93 in 10.0 mi Calm Calm - N/A   Clear
7:53 AM 48.9 °F 43.0 °F 80% 29.94 in 10.0 mi Calm Calm - N/A   Partly Cloudy
8:53 AM 55.9 °F 43.0 °F 62% 29.94 in 10.0 mi Variable 4.6 mph - N/A   Clear
9:53 AM 57.9 °F 43.0 °F 58% 29.91 in 10.0 mi South 6.9 mph - N/A   Clear
10:53 AM 60.1 °F 43.0 °F 53% 29.91 in 10.0 mi Variable 4.6 mph - N/A   Mostly Cloudy
11:53 AM 64.9 °F 45.0 °F 48% 29.88 in 10.0 mi SSE 8.1 mph - N/A   Mostly Cloudy
12:53 PM 64.0 °F 46.0 °F 52% 29.85 in 10.0 mi SE 9.2 mph - N/A   Partly Cloudy
1:53 PM 64.0 °F 45.0 °F 50% 29.83 in 10.0 mi South 10.4 mph - N/A   Partly Cloudy
2:53 PM 64.0 °F 45.0 °F 50% 29.83 in 10.0 mi South 8.1 mph - N/A   Overcast
3:53 PM 62.1 °F 46.0 °F 56% 29.82 in 10.0 mi South 9.2 mph - N/A   Overcast
4:53 PM 60.1 °F 48.0 °F 64% 29.81 in 10.0 mi SSE 9.2 mph - N/A   Overcast
5:53 PM 59.0 °F 50.0 °F 72% 29.81 in 10.0 mi South 5.8 mph - N/A   Mostly Cloudy
6:53 PM 57.0 °F 51.1 °F 81% 29.80 in 10.0 mi South 8.1 mph - N/A   Clear
7:53 PM 55.9 °F 52.0 °F 87% 29.78 in 10.0 mi South 5.8 mph - N/A   Clear
8:53 PM 55.9 °F 52.0 °F 87% 29.78 in 9.0 mi South 4.6 mph - N/A   Mostly Cloudy
9:53 PM 55.9 °F 52.0 °F 87% 29.75 in 9.0 mi South 5.8 mph - N/A   Partly Cloudy
10:53 PM 57.0 °F 52.0 °F 83% 29.75 in 10.0 mi South 4.6 mph - N/A   Overcast
11:53 PM 57.0 °F 52.0 °F 83% 29.73 in 10.0 mi South 6.9 mph - N/A   Scattered Clouds